Regional Weather Roundup
Issued by NWS

Home | Current Version | Previous Version | Graphics & Text | Print | Product List | Glossary On
Versions: 1 2 3 4 5 6 7 8 9 10 11 12 13 14 15 16 17 18 19 20 21 22 23 24 25 26 27 28 29 30 31 32 33 34 35 36 37 38 39 40 41 42 43 44 45 46 47 48 49 50
000
ASUS43 KFSD 241302
RWRSD

WEATHER ROUNDUP FOR SOUTH DAKOTA
NATIONAL WEATHER SERVICE SIOUX FALLS SD
800 AM CDT WED AUG 24 2016

NOTE: "FAIR" INDICATES FEW OR NO CLOUDS BELOW 12,000 FEET WITH NO
SIGNIFICANT WEATHER AND/OR OBSTRUCTIONS TO VISIBILITY.


SDZ001>005-009-010-012>017-241400-
NORTHWEST AND NORTH CENTRAL SOUTH DAKOTA

CITY           SKY/WX    TMP DP  RH WIND       PRES   REMARKS
BUFFALO          N/A     53  47  79 W16       30.07S
FAITH            N/A     56  47  71 W10       30.11R
MOBRIDGE       MOSUNNY   60  47  61 NW12      30.03R
$$

SDZ012>016-024>037-041>051-057-063-072>074-241400-
SOUTHWEST AND SOUTH CENTRAL SOUTH DAKOTA

CITY           SKY/WX    TMP DP  RH WIND       PRES   REMARKS
RAPID CTY ARPT CLOUDY    57  43  59 NW16      30.17R
PIERRE         CLOUDY    57  45  64 SW8       30.07R
CUSTER         CLEAR     47  30  51 W3        30.24R
PHILIP         CLEAR     58  44  60 NW7       30.12R
PINE RIDGE     PTCLDY    46  43  89 CALM      30.18R
WINNER         FAIR      58  44  60 W8        30.07S
$$

SDZ004>011-016>023-039-040-241400-
NORTHEAST SOUTH DAKOTA

CITY           SKY/WX    TMP DP  RH WIND       PRES   REMARKS
ABERDEEN       SUNNY     60  47  61 NW14      29.98S
WATERTOWN      SUNNY     61  53  75 NW10      29.97R
BROOKINGS      SUNNY     58  55  90 NW5       29.96R
$$

SDZ017-020-022-023-036>040-048>070-241400-
SOUTHEAST SOUTH DAKOTA

CITY           SKY/WX    TMP DP  RH WIND       PRES   REMARKS
SIOUX FALLS    MOSUNNY   64  55  72 CALM      29.97R
HURON          SUNNY     56  48  74 NW9       29.98S
CHAMBERLAIN    CLOUDY    58  48  71 NW9       30.04F
MITCHELL       SUNNY     56  51  84 N3        29.99R
YANKTON        CLOUDY    57  48  72 NW9       29.98R
$$

ABBREVIATIONS USED IN REMARKS
   TC - TEMPERATURE IN CELSIUS
  WCI - WIND CHILL INDEX
   HX - HEAT INDEX
  VSB - VISIBILITY





USA.gov is the U.S. government's official web portal to all federal, state and local government web resources and services.